Theta_e
291 291 292 291 291 291 289 288 286 286 286 285 286 286 286 285 284 284 283 283 282 282 281 280 280 280 278 277 278 278 278 277 275 276 277 278 277 276 277 277 277 277 276
293 292 290 289 288 286 285 285 285 284 284 284 285 285 285 285 284 283 282 282 281 280 280 279 278 280 277 277 277 277 277 277 275 273 275 275 275 275 275 274 276 276 275
291 288 287 286 285 284 284 284 284 283 283 284 284 284 283 283 283 283 282 281 280 280 279 278 278 277 276 276 276 276 276 277 275 274 273 274 274 274 273 274 273 273 276
287 286 285 285 284 284 283 283 283 283 282 282 282 282 282 283 283 282 281 280 279 280 280 279 278 277 277 276 277 276 276 275 274 273 273 272 272 273 273 271 270 273 272
286 286 285 284 284 283 282 281 281 281 281 281 280 280 281 282 282 281 280 279 278 278 278 279 278 279 280 279 277 276 275 273 273 272 271 271 270 270 269 270 270 271 271
286 285 284 283 282 281 280 280 280 280 279 279 279 278 279 282 284 283 281 279 279 278 277 278 277 278 278 278 279 279 277 273 272 271 270 269 270 270 270 270 269 268 265
284 283 282 281 281 280 280 279 279 278 278 278 277 277 277 279 283 282 282 279 278 277 277 277 277 278 276 276 277 277 276 276 275 272 270 270 269 270 270 269 269 267 266
283 282 281 280 280 279 278 278 278 277 277 277 277 277 277 278 282 282 281 279 278 277 277 277 276 276 276 277 275 273 273 272 272 273 272 270 271 271 271 270 268 266 266
282 281 280 280 279 278 277 277 277 276 276 276 277 276 276 276 281 281 280 278 278 277 277 276 276 275 277 278 274 272 271 271 273 274 273 273 273 272 272 267 263 262 261
281 281 280 279 278 277 277 276 276 276 277 276 277 276 276 276 280 280 280 278 276 277 276 277 278 276 277 277 273 270 267 269 268 266 266 267 268 268 270 267 265 261 261
281 280 278 278 277 277 276 275 274 274 275 273 274 274 274 275 275 280 280 277 276 275 275 274 274 276 276 276 275 269 269 269 264 261 262 263 264 264 264 265 265 264 261
277 276 275 274 276 276 273 272 272 272 271 270 270 271 273 274 276 278 279 280 278 275 274 273 273 275 275 274 272 272 273 266 259 258 259 260 262 261 262 263 264 264 264
273 272 271 271 273 273 271 271 270 270 270 270 271 270 271 273 273 279 279 279 278 275 274 274 275 274 273 270 270 271 264 260 258 254 258 260 261 261 262 261 262 262 262
272 271 270 270 271 270 273 272 271 270 270 270 270 271 270 270 272 272 272 272 276 275 273 267 269 270 270 268 262 264 263 261 258 257 258 260 260 260 259 260 259 259 259
271 271 271 271 269 270 272 272 272 273 273 270 271 271 268 269 272 274 273 269 268 272 265 262 259 260 260 259 258 257 257 257 256 256 254 257 258 258 258 259 258 258 256
271 270 271 271 270 271 270 271 276 278 278 279 279 274 272 277 278 279 278 278 277 276 263 259 258 259 259 258 257 257 256 255 255 254 253 255 257 256 257 257 257 256 255
272 272 271 271 270 270 269 269 270 270 280 281 280 280 280 277 279 279 279 278 277 273 259 259 258 257 257 258 257 255 254 254 252 252 254 255 255 255 255 255 255 255 254
270 269 268 271 271 271 270 270 270 266 267 269 275 279 279 280 279 279 278 276 265 265 259 259 257 255 256 255 254 252 252 253 251 252 252 251 250 254 254 253 253 253 253
268 269 269 271 270 271 269 268 267 266 267 267 262 271 274 279 280 278 277 268 264 261 259 257 255 254 253 251 251 251 250 250 249 247 247 247 249 249 252 250 252 252 253
264 266 266 266 268 266 267 267 267 267 267 266 266 269 265 267 269 269 265 261 260 259 258 256 255 251 250 249 249 249 248 247 248 246 248 248 249 249 253 253 252 252 252
264 263 264 264 265 267 267 267 268 267 267 267 268 268 270 267 267 265 264 261 260 258 257 256 256 254 253 249 247 248 246 250 248 247 248 248 248 248 250 253 252 252 253
261 263 261 265 264 265 267 267 267 267 267 267 267 266 273 268 263 262 260 259 258 258 257 256 254 253 253 252 251 249 249 249 249 245 247 248 247 249 250 251 249 252 252
259 262 265 265 264 265 266 266 266 266 267 267 266 265 262 263 262 260 259 258 258 258 257 255 253 255 253 252 250 250 250 252 251 248 248 247 245 247 249 248 248 251 252
261 262 264 266 264 265 265 266 266 266 266 265 263 262 261 258 257 259 259 259 258 257 257 256 255 254 253 252 250 249 249 251 252 252 250 250 250 247 248 248 250 252 254
260 262 264 265 265 265 265 265 264 264 264 263 261 259 257 258 258 259 259 258 258 257 256 256 254 253 253 253 252 251 250 253 254 252 249 248 249 248 249 250 252 253 253
259 260 262 263 263 264 264 264 264 263 260 259 258 259 258 258 259 259 258 258 257 257 256 255 254 253 253 253 252 254 253 256 253 252 252 252 251 250 251 252 251 253 254
Wind_Speed
8 8 8 7 6 6 6 5 5 5 5 6 6 5 5 5 5 5 5 5 5 5 5 5 5 5 4 3 3 3 4 4 6 9 8 10 11 11 11 11 11 12 12
6 7 6 6 7 6 6 6 6 6 5 5 5 5 5 4 4 5 4 4 5 5 4 5 4 4 4 3 3 4 4 5 7 13 11 9 11 11 10 13 10 10 11
8 7 6 5 6 6 6 6 6 5 5 5 5 5 5 4 5 4 4 4 5 5 4 4 4 3 3 2 2 3 3 6 6 8 10 9 9 9 11 10 12 12 10
7 6 6 6 6 6 6 5 5 5 5 5 4 5 5 4 3 3 4 4 4 3 4 4 3 4 3 3 4 3 7 7 7 7 9 10 9 11 10 13 12 10 12
7 7 7 6 6 6 5 5 4 4 4 5 5 4 4 4 2 3 3 3 3 3 3 3 3 4 5 6 4 4 6 6 7 8 9 9 10 12 14 11 12 13 12
7 6 6 6 6 6 6 6 5 5 4 4 4 4 4 3 5 4 3 3 3 4 3 2 2 5 4 5 9 13 10 8 8 8 7 10 12 12 11 12 12 13 15
6 6 6 6 6 6 6 5 5 5 4 4 4 5 5 4 6 5 4 3 2 3 3 3 1 2 2 1 7 9 9 11 12 9 10 10 13 13 14 15 14 12 12
6 6 6 6 6 6 6 6 5 4 5 4 5 5 4 5 8 7 5 2 3 4 3 3 2 2 2 3 4 5 5 5 7 7 8 10 10 12 11 12 13 14 10
7 6 6 7 7 6 6 6 5 4 4 5 4 6 6 5 11 8 6 3 3 4 3 2 2 3 3 8 4 5 5 6 8 12 17 17 18 19 17 9 9 11 14
6 7 6 6 6 6 6 6 4 4 5 4 5 6 7 6 11 10 8 3 3 3 2 1 1 1 6 9 3 2 5 6 6 6 8 11 12 11 17 9 8 10 11
6 6 5 6 6 6 5 4 4 4 3 3 5 5 5 6 7 13 12 5 3 3 2 2 2 5 8 9 7 1 5 4 7 4 6 6 6 5 6 7 8 8 10
4 5 5 5 4 4 5 2 2 4 5 5 4 5 4 5 10 13 14 12 8 4 3 3 3 5 7 8 5 10 11 8 2 3 5 6 6 7 7 8 10 9 9
4 5 5 4 4 4 5 6 3 4 5 6 6 6 5 5 5 16 15 14 11 4 3 5 4 5 6 5 8 9 6 2 1 2 4 6 6 7 8 8 8 9 10
5 5 3 5 6 5 4 5 6 6 7 7 6 7 5 4 6 6 4 4 8 4 5 2 2 2 4 3 3 3 2 1 1 2 4 5 5 5 7 7 9 9 9
6 6 5 5 5 5 8 7 8 9 9 7 8 7 6 7 8 13 9 4 3 6 4 2 1 1 1 1 2 2 2 2 2 2 2 5 5 6 7 6 7 8 8
5 4 6 6 5 6 7 7 18 19 17 21 20 11 6 12 16 18 17 17 15 14 3 2 2 2 2 1 2 3 2 2 3 2 3 3 5 6 7 7 6 7 8
8 6 4 6 5 6 5 7 8 7 22 21 19 19 17 13 16 16 17 15 15 7 3 3 2 3 2 3 3 3 2 3 2 3 3 4 4 5 6 7 6 7 8
6 6 4 5 6 6 7 8 6 4 5 7 14 17 18 20 19 17 16 12 2 3 2 3 4 3 3 3 2 2 2 3 3 3 4 4 3 3 5 5 6 7 8
5 5 5 6 6 7 6 6 6 6 7 5 2 8 9 19 19 17 17 5 4 3 3 3 3 3 3 3 3 3 4 4 3 2 3 3 3 1 4 3 4 8 9
5 9 7 5 5 5 5 6 6 6 6 6 6 7 3 2 5 6 3 3 3 3 3 3 3 3 3 3 3 3 3 3 3 3 4 3 4 2 4 5 4 6 7
4 4 6 4 4 6 5 6 6 6 7 6 7 7 13 7 7 6 5 5 4 3 4 3 3 3 3 3 2 2 3 4 3 4 4 3 3 3 3 5 5 6 6
4 4 3 5 3 4 6 5 5 6 7 7 6 6 19 8 5 5 4 4 4 3 3 3 3 3 3 3 3 3 4 5 4 4 5 4 3 4 3 4 3 5 6
4 5 6 5 5 6 6 6 7 7 7 7 6 6 4 3 6 5 4 4 4 3 3 3 3 3 3 4 4 4 5 6 5 4 5 3 3 4 3 3 3 5 5
4 5 6 6 4 6 7 7 7 9 7 6 5 5 5 4 4 5 4 4 3 3 3 3 3 5 4 4 4 4 5 6 4 6 7 4 4 4 3 3 4 7 7
4 6 6 7 6 6 7 7 7 6 6 6 5 4 3 4 4 4 4 4 4 4 3 3 3 5 7 8 7 8 8 11 9 6 4 5 6 6 5 4 6 7 7
5 5 6 6 6 7 7 7 7 6 5 4 4 4 5 5 5 5 6 5 4 4 4 3 4 7 7 6 8 10 9 10 9 12 8 7 7 6 6 7 8 7 7
Wind_Direction
104 104 105 106 112 119 133 130 109 103 105 94 96 94 85 78 74 84 90 84 85 75 65 74 61 57 50 14 0 12 358 336 316 316 318 319 323 325 331 332 324 328 331
121 115 118 138 155 120 116 116 106 106 97 109 106 101 98 97 96 95 91 99 101 89 82 84 75 68 49 31 4 359 339 326 322 312 318 323 322 329 324 323 333 330 321
136 136 148 146 116 127 114 112 116 123 119 110 119 124 124 116 117 119 122 112 115 112 109 102 105 87 50 11 351 351 332 334 316 310 313 320 317 326 326 327 331 321 318
143 145 149 154 140 125 119 130 131 137 135 133 136 122 116 112 108 102 106 110 106 113 117 115 136 110 90 357 15 355 346 333 328 317 317 318 325 330 327 328 327 324 324
156 161 166 133 117 115 128 139 136 147 153 154 132 124 130 148 158 122 117 133 133 131 124 137 135 123 42 18 12 345 347 340 326 324 318 317 327 335 335 327 319 321 324
171 168 144 132 130 142 153 157 166 166 158 138 150 163 188 164 169 145 126 180 169 159 162 142 130 115 55 16 355 349 345 334 336 320 320 325 327 328 320 323 323 329 328
168 158 156 152 150 162 161 168 182 188 166 170 184 190 202 192 187 186 192 197 186 182 171 148 113 110 66 349 343 349 336 332 337 330 323 329 324 320 324 326 326 329 319
177 168 162 155 163 174 171 186 194 182 185 184 203 209 205 213 205 212 216 211 206 196 178 161 166 170 15 345 342 343 324 330 324 325 335 324 313 323 326 322 333 316 307
187 181 169 169 181 182 186 196 189 182 192 198 196 203 210 213 210 216 218 217 216 197 170 168 180 155 304 332 357 322 328 317 324 335 331 327 330 332 331 338 331 332 321
184 190 181 181 187 191 199 189 178 189 207 197 210 207 214 215 217 220 221 210 215 185 140 90 271 227 324 330 350 22 321 316 348 346 335 332 331 321 336 338 330 324 321
181 184 185 188 190 195 187 170 170 195 203 206 219 214 209 206 221 224 227 207 205 175 176 198 156 307 313 327 337 76 265 46 351 344 322 319 309 317 323 327 324 317 312
158 172 183 180 186 180 169 155 168 184 206 219 227 244 226 209 216 232 226 219 215 188 204 181 205 292 321 318 337 313 331 13 355 325 325 316 320 325 323 323 319 311 298
155 185 189 184 182 168 175 192 203 192 209 222 225 232 231 210 208 223 228 218 223 213 160 210 249 308 310 325 316 321 43 357 302 344 313 307 315 306 309 323 318 309 299
199 207 189 195 206 204 203 202 206 205 219 225 223 232 224 206 205 213 210 224 237 196 171 144 241 273 293 300 8 342 315 287 278 280 282 303 296 311 327 327 324 323 317
215 213 216 212 205 212 220 214 219 222 211 215 224 220 201 218 210 201 196 189 181 196 127 89 62 59 267 302 314 301 291 317 311 269 270 305 307 327 322 325 318 323 320
233 219 219 215 213 221 225 246 241 240 237 242 239 220 226 229 212 212 209 209 215 188 116 166 213 217 231 229 252 270 264 268 265 263 284 291 309 316 315 321 320 321 319
236 237 227 222 224 225 222 231 254 253 246 243 243 244 224 216 218 217 213 219 225 196 145 198 204 207 224 234 236 228 258 251 243 257 272 283 285 296 312 317 318 321 315
247 256 229 234 228 227 224 230 227 217 233 239 251 232 233 229 218 218 213 219 175 206 163 190 211 213 227 230 231 230 265 272 257 260 268 262 257 284 308 308 312 313 309
241 251 236 247 236 236 225 220 216 215 224 225 257 246 253 231 223 216 214 194 189 180 189 210 207 212 219 218 229 241 238 253 243 250 265 261 264 220 286 271 289 298 298
254 251 235 237 243 237 230 232 230 227 224 218 216 222 167 108 207 207 169 145 167 170 187 207 217 217 224 220 233 239 261 270 269 256 254 249 265 236 273 289 291 292 298
272 264 252 250 247 247 238 234 233 225 230 225 225 209 197 195 204 198 195 189 181 185 194 198 215 230 238 231 236 252 243 266 253 253 259 256 248 262 232 277 279 278 282
290 285 265 254 249 247 245 239 235 236 236 232 226 210 228 194 189 188 175 169 179 185 176 178 202 217 219 219 219 222 243 255 257 241 256 249 239 248 249 266 261 277 284
287 287 282 254 242 251 252 242 242 239 238 231 219 207 208 173 177 164 166 171 172 175 177 183 199 238 224 227 209 209 233 249 242 212 239 238 222 240 231 239 245 277 279
277 274 276 272 239 244 247 247 239 237 233 224 203 198 188 165 166 166 166 161 171 185 186 187 205 232 253 244 222 218 225 245 237 240 228 237 246 240 230 240 250 267 278
264 272 269 269 266 257 256 246 240 235 227 214 198 177 163 159 157 154 149 170 187 190 197 205 213 234 249 258 262 255 242 256 251 218 207 206 231 237 239 239 256 267 266
282 267 271 271 264 260 252 251 245 233 218 206 182 178 165 158 159 167 183 185 183 192 209 213 229 245 258 259 256 259 255 250 229 225 213 210 219 228 232 241 251 256 254